#timestamp,LO_Frequency,Hit,StdDev 
1508043615.4,286046993.8,N
1508043635.3,286046997.6,N
1508043655.1,286046996.3,N
1508043656.0,286046996.3,N
1508043675.8,286046995.0,N
1508043695.7,286046996.1,N
1508043715.5,286046995.0,N
1508043735.3,286046992.9,N
1508043755.2,286046989.0,Y
1508043775.9,286046992.7,P
1508043795.7,286046990.2,P
1508043815.6,286046994.0,N
1508043835.4,286046993.0,N
1508043855.2,286046992.5,Y
1508043875.1,286046998.8,P
1508043876.0,286046998.8,N
1508043895.8,286046997.8,N
1508043915.6,286046997.1,N
1508043935.5,286046996.7,N
1508043955.3,286046997.5,N
1508043975.1,286046993.3,Y
1508043995.9,286046998.2,P
1508044015.7,286046999.7,N
1508044035.5,286046998.8,N
1508044055.4,286046997.0,Y
1508044075.2,286047002.8,P
1508044095.0,286047000.1,N
1508044095.9,286047000.1,N
1508044115.8,286047002.8,N
1508044135.6,286047003.6,N
1508044155.4,286047001.3,N
1508044175.2,286047001.7,N
1508044195.1,286046999.9,N
1508044196.0,286046999.9,N
1508044215.8,286047004.4,N
1508044235.6,286047004.4,N
1508044255.5,286047001.7,N
1508044275.3,286047003.7,N
1508044295.1,286047002.0,N
1508044315.9,286047001.9,N
1508044335.7,286047000.9,N
1508044355.5,286046998.4,N
1508044375.4,286046999.6,N
1508044395.2,286046999.6,N
1508044415.0,286047001.2,N
1508044415.9,286047001.2,N
1508044435.8,286047001.5,N
1508044455.6,286046999.8,N
1508044475.4,286047001.9,N
1508044495.3,286047005.1,Y
1508044515.1,286047004.0,P
1508044516.0,286047004.0,N
1508044535.8,286047003.7,N
1508044555.7,286047003.4,N
1508044575.5,286047005.9,Y
1508044595.3,286047001.7,P
1508044615.2,286047002.2,N
1508044635.9,286047002.0,N
1508044655.7,286047002.7,Y
1508044675.6,286046997.1,P
1508044695.4,286047000.7,N
1508044715.2,286046998.7,N
1508044735.0,286047001.0,N
1508044736.0,286047001.0,N
1508044755.8,286047001.5,N
1508044775.6,286047003.1,N
1508044795.4,286047005.6,Y
1508044815.3,286047004.8,P
1508044835.1,286047007.4,P
1508044855.8,286047004.8,N
1508044875.7,286047003.7,N
1508044895.5,286047005.9,N
1508044915.3,286047003.3,N
1508044935.2,286047001.7,N
1508044955.9,286047002.7,N
1508044975.7,286047000.8,N
1508044995.6,286047002.4,N
1508045015.4,286046998.4,N
1508045035.2,286046998.1,N
1508045055.1,286047000.1,N
1508045056.0,286047000.1,N
1508045075.8,286047002.7,N
1508045095.6,286047000.0,N
1508045115.5,286046998.1,N
1508045135.3,286047000.9,N
1508045155.1,286046996.5,N
1508045175.8,286046999.0,N
1508045195.7,286047002.7,N
1508045215.5,286047001.1,N
1508045235.3,286047001.7,N
1508045255.2,286047003.8,N
1508045275.9,286047001.9,N
1508045295.7,286047003.5,N
1508045315.6,286047007.1,N
1508045335.4,286047003.6,N
1508045355.2,286046999.9,N
1508045375.0,286047002.0,N
1508045376.0,286047002.0,N
1508045395.8,286046998.2,N
1508045415.6,286047000.6,N
1508045435.4,286047001.7,N
1508045455.3,286047001.4,N
1508045475.1,286047002.0,N
1508045495.8,286047001.6,N
1508045515.7,286047003.4,N
1508045535.5,286047003.7,N
1508045555.3,286047003.8,N
1508045575.2,286047004.4,N
1508045595.9,286047001.9,N
1508045615.7,286047000.2,N
1508045635.6,286047004.1,N
1508045655.4,286047003.7,N
1508045675.2,286047004.3,N
1508045695.1,286047004.0,N
1508045696.0,286047004.0,N
1508045715.8,286047001.7,N
1508045735.6,286047002.7,N
1508045755.5,286047005.2,Y
1508045775.3,286047002.6,P
1508045795.1,286047000.5,P
1508045815.9,286047000.9,N
1508045835.7,286046999.6,N
1508045855.5,286046995.2,Y
1508045875.4,286046996.3,P
1508045895.2,286046997.6,N
1508045915.0,286046997.1,N
1508045915.9,286046997.1,N
1508045935.8,286046993.9,Y
1508045955.6,286046996.8,P
1508045975.4,286046995.8,P
1508045995.2,286046990.1,P
1508046015.1,286046987.0,Y
1508046016.0,286046987.0,P
1508046035.8,286046994.8,N
1508046055.7,286046992.5,N
1508046075.5,286046993.6,N
1508046095.3,286046990.3,Y
1508046115.2,286046997.6,P
1508046135.9,286046995.4,N
1508046155.7,286046995.8,N
1508046175.5,286046996.3,N
1508046195.4,286046994.0,Y
1508046215.2,286046996.6,P
1508046235.0,286046997.8,P
1508046236.0,286046997.8,N
1508046255.8,286046993.8,Y
1508046275.6,286046995.4,P
1508046295.5,286046992.3,P
1508046315.3,286046990.3,P
1508046335.1,286046990.0,Y
1508046355.9,286046990.3,P
1508046375.7,286046991.1,P
1508046395.5,286046996.1,N
1508046415.3,286046997.4,N
1508046435.2,286046996.8,N
1508046455.0,286046997.6,N
1508046455.9,286046997.6,N
1508046475.7,286046998.5,N
1508046495.6,286046999.8,N
1508046515.4,286047002.0,N
1508046535.2,286047003.4,N
1508046555.1,286047007.6,N
1508046556.0,286047007.6,N
1508046575.8,286047005.0,N
1508046595.6,286047005.0,N
1508046615.5,286047007.0,N
1508046635.3,286047007.5,N
1508046655.1,286047006.2,N
1508046675.8,286047008.5,N
1508046695.7,286047008.9,N
1508046715.5,286047012.1,N
1508046735.3,286047011.6,N
1508046755.2,286047013.5,N
1508046775.9,286047014.6,N
1508046795.7,286047014.1,N
1508046815.6,286047018.0,N
1508046835.4,286047016.8,N
1508046855.2,286047016.3,N
1508046875.1,286047020.3,N
1508046876.0,286047020.3,N
1508046895.8,286047019.6,N
1508046915.6,286047019.3,N
1508046935.5,286047019.5,N
1508046955.3,286047015.7,N
1508046975.1,286047017.3,N
1508046995.8,286047020.3,N
1508047015.7,286047014.6,N
1508047035.5,286047014.6,N
1508047055.3,286047012.9,N
1508047075.2,286047012.0,N
1508047095.9,286047012.5,N
1508047115.7,286047017.5,Y
1508047135.6,286047007.9,P
1508047155.4,286047006.4,N
1508047175.2,286047007.1,N
1508047195.1,286047006.5,N
1508047196.0,286047006.5,N
